COSMOS 2251 DEB, 40796

Orbit data source: Space-Track

COSMOS 2251 DEB, 40796 is space debris in LEO originally from a launch on Wed, 16 Jun 1993 UTC launched from the Plesetsk Missile And Space Complex (PKMTR). The debris from Iridium 33, an American commercial communications satellite, has been tracked extensively since its accidental collision with the defunct Russian satellite Cosmos 2251 in 2009. This event, occurring at high speed in low Earth orbit (LEO), generated thousands of pieces of space debris, significantly increasing the risk of further collisions. The Iridium 33 debris cloud has impacted space traffic management and orbital debris mitigation strategies, making it a subject of ongoing study in space situational awareness.

Loading next visibility...
COSMOS 2251 DEB details
Identifier
40796, 1993-036BVZ
Orbit
LEO
Last TLE update1 week ago
Origin
Flag of CISKVR (CIS)
ManufacturerUnknown
MissionSpacecraft
Bus & MotorUnknown
MassUnknown
Launch date (UTC)
1993-06-16 (31 years ago)
Launch vehicleUnknown
Launch site
Plesetsk Missile And Space Complex (PKMTR)
Object type
Payload
Rocket body
Debris
Shape & HBRUnknown
Radar Cross SectionSmall (<0.1 m²)

Expand to show TLE details & history

TLE from 1 week ago
0 COSMOS 2251 DEB
1 40796U 93036BVZ 24333.24925090  .00012776  00000-0  18547-2 0  9993
2 40796  74.0149 168.8666 0062582  41.9061  77.7669 14.74687012705495
Epoch: 2024-11-28T05:58Z
Definitive object data (Epoch: 2024-11-28T05:58:55.277Z)
Latitude56.14491°
Longitude166.37048°
Altitude646.11 km
Speed7.545 km/s
True Right ascension21h 34m 56s
True Declination55° 58' 59"
Sunlit
Object was in daylight at TLE epoch
Visualization TLE readout
Latitude-73.90345°
Longitude-101.59561°
Altitude693.076 km
Speed7.498 km/s
Apparent Right ascension21h 07m 32s
Apparent Declination-68° 51' 19"
Sunlit
Object is in daylight
Visualization observer readout
Local Sidereal Time07:34:05
Azimuth195.878° SSW
Elevation-58.479°
Doppler factor1
Orbital elements
Apogee altitude687.672 km
Perigee altitude599.784 km
Semi-major axis7,021.865 km
Eccentricity0.0062582
Inclination74.0149°
RAAN168.8666°
Arg. of periapsis41.9061°
True anomaly78.4689°
Mean anomaly77.7669°
Eccentric anomaly78.11779°
Mean motion3.68862 °/min
BSTAR0.0018547
Orbital period97.6 mins
Loading maneuver chart data...

COSMOS 2251 DEB Visibility forecast

Observer location: undefined°, undefined

Span
Click to sort rows by Start time (UTC) header in descending order
Start Az.
Max El. time (UTC)
Max El. Az.
Max El.
End time (UTC)
End Az.
8 mins2024-12-05 13:23:50.777Z208.937° SW2024-12-05 13:27:50.777Z306.833° NW41.937°2024-12-05 13:31:50.777Z12.739° NNE
4 mins2024-12-05 21:58:50.777Z40.208° NE2024-12-05 21:59:50.777Z55.104° ENE15.107°2024-12-05 22:02:50.777Z95.501° ESE
7 mins2024-12-05 23:36:50.777Z325.518° NNW2024-12-05 23:39:50.777Z252.513° W39.172°2024-12-05 23:43:50.777Z179.872° S
|